H1 CPF 2 NER 2024 10 30 9 304 01 glonass134 H2 1407501 9134 40315 2024 10 30 0 0 0 2024 11 2 23 45 0 900 1 1 0 0 0 1 H9 10 0 60613 0.00000 0 19803049.132 -9263587.049 13088413.352 10 0 60613 900.00000 0 21214924.409 -9580901.949 10351570.566 10 0 60613 1800.00000 0 22261111.273 -9913927.268 7412883.952 10 0 60613 2700.00000 0 22926936.891 -10208451.250 4329574.074 10 0 60613 3600.00000 0 23210703.555 -10409784.661 1161757.307 10 0 60613 4500.00000 0 23123629.421 -10465301.320 -2028740.918 10 0 60613 5400.00000 0 22689257.529 -10326904.632 -5179611.737 10 0 60613 6300.00000 0 21942357.978 -9953312.764 -8229301.336 10 0 60613 7200.00000 0 20927370.364 -9312062.769 -11118235.729 10 0 60613 8100.00000 0 19696453.541 -8381145.926 -13790005.507 10 0 60613 9000.00000 0 18307227.049 -7150202.773 -16192485.258 10 0 60613 9900.00000 0 16820301.775 -5621225.562 -18278863.912 10 0 60613 10800.00000 0 15296706.277 -3808737.440 -20008564.694 10 0 60613 11700.00000 0 13795319.242 -1739440.428 -21348036.148 10 0 60613 12600.00000 0 12370417.611 548652.692 -22271398.846 10 0 60613 13500.00000 0 11069444.216 3007565.437 -22760935.923 10 0 60613 14400.00000 0 9931088.560 5581126.267 -22807419.129 10 0 60613 15300.00000 0 8983760.286 8207083.793 -22410265.682 10 0 60613 16200.00000 0 8244517.589 10819479.483 -21577524.737 10 0 60613 17100.00000 0 7718493.031 13351178.499 -20325695.676 10 0 60613 18000.00000 0 7398838.028 15736453.295 -18679383.595 10 0 60613 18900.00000 0 7267185.313 17913513.080 -16670800.344 10 0 60613 19800.00000 0 7294607.089 19826875.132 -14339122.155 10 0 60613 20700.00000 0 7443026.101 21429480.977 -11729717.371 10 0 60613 21600.00000 0 7667018.304 22684471.535 -8893259.890 10 0 60613 22500.00000 0 7915929.992 23566549.693 -5884745.778 10 0 60613 23400.00000 0 8136219.586 24062875.992 -2762432.057 10 0 60613 24300.00000 0 8273925.515 24173462.465 413282.241 10 0 60613 25200.00000 0 8277156.776 23911050.214 3581011.842 10 0 60613 26100.00000 0 8098502.197 23300477.453 6679556.450 10 0 60613 27000.00000 0 7697258.046 22377565.381 9649066.049 10 0 60613 27900.00000 0 7041381.284 21187568.784 12432179.207 10 0 60613 28800.00000 0 6109087.017 19783255.779 14975113.872 10 0 60613 29700.00000 0 4890023.333 18222696.014 17228691.186 10 0 60613 30600.00000 0 3385973.750 16566848.284 19149273.995 10 0 60613 31500.00000 0 1611056.729 14877046.659 20699603.173 10 0 60613 32400.00000 0 -408588.053 13212488.240 21849516.588 10 0 60613 33300.00000 0 -2635616.150 11627825.749 22576537.343 10 0 60613 34200.00000 0 -5022766.567 10170964.080 22866319.944 10 0 60613 35100.00000 0 -7514571.448 8881151.945 22712945.246 10 0 60613 36000.00000 0 -10049419.495 7787448.002 22119057.383 10 0 60613 36900.00000 0 -12561890.298 6907625.936 21095838.414 10 0 60613 37800.00000 0 -14985265.065 6247565.189 19662819.153 10 0 60613 38700.00000 0 -17254111.020 5801154.175 17847527.559 10 0 60613 39600.00000 0 -19306832.732 5550711.604 15684979.171 10 0 60613 40500.00000 0 -21088083.946 5467909.742 13217017.242 10 0 60613 41400.00000 0 -22550938.322 5515162.038 10491513.563 10 0 60613 42300.00000 0 -23658726.762 5647417.321 7561444.193 10 0 60613 43200.00000 0 -24386462.393 5814284.926 4483857.509 10 0 60613 44100.00000 0 -24721791.275 5962400.138 1318754.744 10 0 60613 45000.00000 0 -24665427.013 6037928.323 -1872094.216 10 0 60613 45900.00000 0 -24231049.487 5989099.445 -5026375.154 10 0 60613 46800.00000 0 -23444671.274 5768662.821 -8082468.026 10 0 60613 47700.00000 0 -22343498.521 5336155.134 -10980673.062 10 0 60613 48600.00000 0 -20974335.180 4659882.672 -13664398.128 10 0 60613 49500.00000 0 -19391599.394 3718531.273 -16081281.917 10 0 60613 50400.00000 0 -17655037.611 2502333.734 -18184229.207 10 0 60613 51300.00000 0 -15827234.925 1013743.985 -19932336.696 10 0 60613 52200.00000 0 -13971028.465 -732411.172 -21291690.728 10 0 60613 53100.00000 0 -12146934.255 -2709309.156 -22236021.404 10 0 60613 54000.00000 0 -10410696.608 -4879021.215 -22747201.021 10 0 60613 54900.00000 0 -8811063.039 -7193876.366 -22815578.355 10 0 60613 55800.00000 0 -7387877.323 -9598241.488 -22440143.911 10 0 60613 56700.00000 0 -6170568.985 -12030642.215 -21628524.764 10 0 60613 57600.00000 0 -5177100.181 -14426135.333 -20396811.051 10 0 60613 58500.00000 0 -4413411.240 -16718833.403 -18769219.304 10 0 60613 59400.00000 0 -3873384.866 -18844476.587 -16777600.885 10 0 60613 60300.00000 0 -3539327.322 -20742945.272 -14460806.380 10 0 60613 61200.00000 0 -3382943.356 -22360610.059 -11863919.383 10 0 60613 62100.00000 0 -3366761.371 -23652422.949 -9037375.178 10 0 60613 63000.00000 0 -3445946.955 -24583664.591 -6035981.683 10 0 60613 63900.00000 0 -3570427.221 -25131276.918 -2917861.577 10 0 60613 64800.00000 0 -3687235.967 -25284727.777 256664.298 10 0 60613 65700.00000 0 -3742980.985 -25046373.396 3426231.439 10 0 60613 66600.00000 0 -3686330.206 -24431305.158 6529602.668 10 0 60613 67500.00000 0 -3470412.903 -23466688.124 9506834.263 10 0 60613 68400.00000 0 -3055035.912 -22190619.386 12300416.084 10 0 60613 69300.00000 0 -2408622.542 -20650553.697 14856365.198 10 0 60613 70200.00000 0 -1509793.209 -18901361.274 17125253.405 10 0 60613 71100.00000 0 -348521.452 -17003097.429 19063150.357 10 0 60613 72000.00000 0 1073183.871 -15018575.303 20632465.248 10 0 60613 72900.00000 0 2741100.204 -13010840.911 21802671.874 10 0 60613 73800.00000 0 4629126.412 -11040653.755 22550903.579 10 0 60613 74700.00000 0 6700120.195 -9164076.271 22862406.639 10 0 60613 75600.00000 0 8907206.080 -7430271.193 22730842.834 10 0 60613 76500.00000 0 11195502.905 -5879597.839 22158434.287 10 0 60613 77400.00000 0 13504202.059 -4542086.574 21155946.151 10 0 60613 78300.00000 0 15768912.782 -3436355.523 19742505.513 10 0 60613 79200.00000 0 17924178.996 -2569015.736 17945257.691 10 0 60613 80100.00000 0 19906064.032 -1934590.989 15798864.284 10 0 60613 81000.00000 0 21654695.772 -1515956.939 13344850.459 10 0 60613 81900.00000 0 23116665.286 -1285282.417 10630812.300 10 0 60613 82800.00000 0 24247177.220 -1205434.117 7709498.302 10 0 60613 83700.00000 0 25011859.763 -1231785.702 4637782.224 10 0 60613 84600.00000 0 25388156.130 -1314354.443 1475547.423 10 0 60613 85500.00000 0 25366236.613 -1400173.844 -1715494.721 10 0 60614 0.00000 0 24949390.916 -1435799.819 -4873027.481 10 0 60614 900.00000 0 24153882.667 -1369841.690 -7935368.316 10 0 60614 1800.00000 0 23008272.242 -1155407.842 -10842694.483 10 0 60614 2700.00000 0 21552235.880 -752359.489 -13538234.022 10 0 60614 3600.00000 0 19834932.256 -129274.240 -15969392.405 10 0 60614 4500.00000 0 17912986.693 734965.970 -18088792.652 10 0 60614 5400.00000 0 15848179.825 1850031.463 -19855207.019 10 0 60614 6300.00000 0 13704939.837 3213495.232 -21234361.448 10 0 60614 7200.00000 0 11547745.385 4810704.898 -22199597.063 10 0 60614 8100.00000 0 9438549.382 6615181.292 -22732376.499 10 0 60614 9000.00000 0 7434332.114 8589526.178 -22822626.413 10 0 60614 9900.00000 0 5584885.837 10686799.945 -22468911.084 10 0 60614 10800.00000 0 3930922.306 12852310.483 -21678435.614 10 0 60614 11700.00000 0 2502580.338 15025737.440 -20466880.579 10 0 60614 12600.00000 0 1318393.138 17143502.393 -18858073.215 10 0 60614 13500.00000 0 384755.359 19141285.794 -16883503.219 10 0 60614 14400.00000 0 -304091.146 20956585.896 -14581693.934 10 0 60614 15300.00000 0 -765555.673 22531213.716 -11997442.194 10 0 60614 16200.00000 0 -1027705.149 23813621.197 -9180942.277 10 0 60614 17100.00000 0 -1127823.036 24760967.102 -6186811.215 10 0 60614 18000.00000 0 -1110583.021 25340836.234 -3073034.334 10 0 60614 18900.00000 0 -1025915.501 25532542.193 100148.943 10 0 60614 19800.00000 0 -926657.037 25327961.079 3271398.224 10 0 60614 20700.00000 0 -866081.556 24731862.832 6379442.831 10 0 60614 21600.00000 0 -895416.534 23761727.469 9364248.654 10 0 60614 22500.00000 0 -1061447.781 22447054.398 12168160.038 10 0 60614 23400.00000 0 -1404312.575 20828193.501 14736996.153 10 0 60614 24300.00000 0 -1955573.128 18954746.012 17021082.205 10 0 60614 25200.00000 0 -2736650.905 16883600.484 18976197.103 10 0 60614 26100.00000 0 -3757687.705 14676683.910 20564420.510 10 0 60614 27000.00000 0 -5016882.122 12398519.506 21754863.952 10 0 60614 27900.00000 0 -6500330.861 10113690.613 22524272.427 10 0 60614 28800.00000 0 -8182383.883 7884314.167 22857484.971 10 0 60614 29700.00000 0 -10026501.446 5767627.089 22747744.811 10 0 60614 30600.00000 0 -11986580.521 3813784.749 22196852.048 10 0 60614 31500.00000 0 -14008698.497 2063962.525 21215154.370 10 0 60614 32400.00000 0 -16033204.487 548839.510 19821373.985 10 0 60614 33300.00000 0 -17997073.471 -712471.860 18042271.836 10 0 60614 34200.00000 0 -19836426.729 -1713004.516 15912153.295 10 0 60614 35100.00000 0 -21489114.031 -2457998.398 13472222.667 10 0 60614 36000.00000 0 -22897249.445 -2964441.207 10769797.146 10 0 60614 36900.00000 0 -24009593.388 -3260106.580 7857394.177 10 0 60614 37800.00000 0 -24783679.252 -3382129.719 4791709.255 10 0 60614 38700.00000 0 -25187592.916 -3375180.689 1632504.151 10 0 60614 39600.00000 0 -25201327.742 -3289313.440 -1558571.967 10 0 60614 40500.00000 0 -24817655.722 -3177583.206 -4719203.996 10 0 60614 41400.00000 0 -24042475.973 -3093535.445 -7787649.160 10 0 60614 42300.00000 0 -22894624.699 -3088675.445 -10703965.480 10 0 60614 43200.00000 0 -21405154.153 -3210028.737 -13411204.078 10 0 60614 44100.00000 0 -19616111.188 -3497898.556 -15856539.766 10 0 60614 45000.00000 0 -17578867.885 -3983917.787 -17992315.950 10 0 60614 45900.00000 0 -15352076.012 -4689479.812 -19776982.115 10 0 60614 46800.00000 0 -12999333.027 -5624615.857 -21175904.910 10 0 60614 47700.00000 0 -10586659.323 -6787366.759 -22162037.005 10 0 60614 48600.00000 0 -8179893.862 -8163675.519 -22716431.292 10 0 60614 49500.00000 0 -5842117.995 -9727804.472 -22828591.641 10 0 60614 50400.00000 0 -3631215.292 -11443258.439 -22496654.925 10 0 60614 51300.00000 0 -1597668.517 -13264173.891 -21727402.638 10 0 60614 52200.00000 0 217315.896 -15137114.664 -20536103.797 10 0 60614 53100.00000 0 1783279.957 -17003198.024 -18946194.066 10 0 60614 54000.00000 0 3081524.316 -18800461.493 -16988798.999 10 0 60614 54900.00000 0 4105617.752 -20466371.328 -14702112.083 10 0 60614 55800.00000 0 4861388.052 -21940368.100 -12130640.722 10 0 60614 56700.00000 0 5366398.060 -23166343.837 -9324335.495 10 0 60614 57600.00000 0 5648931.769 -24094948.473 -6337619.889 10 0 60614 58500.00000 0 5746535.407 -24685630.698 -3228339.293 10 0 60614 59400.00000 0 5704176.472 -24908329.648 -56649.223 10 0 60614 60300.00000 0 5572099.065 -24744748.343 3116136.414 10 0 60614 61200.00000 0 5403465.981 -24189157.118 6228715.670 10 0 60614 62100.00000 0 5251886.385 -23248694.532 9220966.136 10 0 60614 63000.00000 0 5168932.327 -21943153.743 12035088.574 10 0 60614 63900.00000 0 5201747.521 -20304263.225 14616706.015 10 0 60614 64800.00000 0 5390847.923 -18374491.133 16915898.636 10 0 60614 65700.00000 0 5768205.742 -16205421.829 18888155.956 10 0 60614 66600.00000 0 6355697.023 -13855770.369 20495229.208 10 0 60614 67500.00000 0 7163978.226 -11389115.331 21705868.484 10 0 60614 68400.00000 0 8191839.920 -8871441.855 22496431.003 10 0 60614 69300.00000 0 9426066.429 -6368594.658 22851348.855 10 0 60614 70200.00000 0 10841809.704 -3943744.691 22763446.729 10 0 60614 71100.00000 0 12403464.713 -1654973.023 22234102.476 10 0 60614 72000.00000 0 14066012.865 446928.725 21273245.854 10 0 60614 72900.00000 0 15776780.407 2320350.360 19899193.511 10 0 60614 73800.00000 0 17477541.010 3934368.566 18138321.129 10 0 60614 74700.00000 0 19106876.678 5269802.292 16024576.751 10 0 60614 75600.00000 0 20602699.419 6319772.916 13598842.490 10 0 60614 76500.00000 0 21904828.299 7089744.544 10908155.093 10 0 60614 77400.00000 0 22957513.058 7597041.580 8004799.127 10 0 60614 78300.00000 0 23711796.777 7869863.181 4945289.733 10 0 60614 79200.00000 0 24127616.041 7945835.885 1789264.739 10 0 60614 80100.00000 0 24175547.565 7870166.017 -1401691.431 10 0 60614 81000.00000 0 23838124.979 7693471.179 -4565267.715 10 0 60614 81900.00000 0 23110667.853 7469384.548 -7639664.435 10 0 60614 82800.00000 0 22001586.210 7252035.955 -10564822.829 10 0 60614 83700.00000 0 20532146.418 7093519.214 -13283619.709 10 0 60614 84600.00000 0 18735707.982 7041455.839 -15743001.677 10 0 60614 85500.00000 0 16656463.759 7136760.937 -17895034.767 10 0 60615 0.00000 0 14347737.829 7411707.945 -19697847.560 10 0 60615 900.00000 0 11869912.686 7888375.708 -21116449.550 10 0 60615 1800.00000 0 9288077.441 8577543.861 -22123406.358 10 0 60615 2700.00000 0 6669492.912 9478083.596 -22699362.508 10 0 60615 3600.00000 0 4080983.662 10576868.534 -22833400.203 10 0 60615 4500.00000 0 1586365.214 11849208.440 -22523229.726 10 0 60615 5400.00000 0 -755986.366 13259786.091 -21775209.429 10 0 60615 6300.00000 0 -2895322.337 14764056.486 -20604196.834 10 0 60615 7200.00000 0 -4790377.322 16310048.290 -19033235.651 10 0 60615 8100.00000 0 -6410818.806 17840490.964 -17093086.464 10 0 60615 9000.00000 0 -7738232.774 19295177.807 -14821611.626 10 0 60615 9900.00000 0 -8766607.737 20613465.808 -12263027.414 10 0 60615 10800.00000 0 -9502300.379 21736808.018 -9467038.642 10 0 60615 11700.00000 0 -9963487.457 22611213.259 -6487872.861 10 0 60615 12600.00000 0 -10179129.683 23189531.390 -3383232.862 10 0 60615 13500.00000 0 -10187493.167 23433469.902 -213187.400 10 0 60615 14400.00000 0 -10034291.959 23315258.918 2960979.107 10 0 60615 15300.00000 0 -9770530.387 22818896.276 6077936.533 10 0 60615 16200.00000 0 -9450135.919 21940921.700 9077477.283 10 0 60615 17100.00000 0 -9127481.482 20690688.269 11901661.626 10 0 60615 18000.00000 0 -8854900.478 19090119.897 14495919.464 10 0 60615 18900.00000 0 -8680297.803 17172964.326 16810088.828 10 0 60615 19800.00000 0 -8644956.162 14983571.515 18799372.553 10 0 60615 20700.00000 0 -8781629.043 12575246.470 20425195.940 10 0 60615 21600.00000 0 -9113000.058 10008242.748 21655949.874 10 0 60615 22500.00000 0 -9650573.672 7347477.453 22467605.715 10 0 60615 23400.00000 0 -10394044.860 4660060.007 22844190.145 10 0 60615 24300.00000 0 -11331175.886 2012734.826 22778110.425 10 0 60615 25200.00000 0 -12438187.765 -530658.068 22270322.779 10 0 60615 26100.00000 0 -13680652.788 -2911600.564 21330339.116 10 0 60615 27000.00000 0 -15014853.657 -5079092.585 19976070.026 10 0 60615 27900.00000 0 -16389555.107 -6991535.676 18233504.835 10 0 60615 28800.00000 0 -17748116.059 -8618225.157 16136232.584 10 0 60615 29700.00000 0 -19030855.396 -9940387.684 13724810.981 10 0 60615 30600.00000 0 -20177572.738 -10951719.612 11045993.610 10 0 60615 31500.00000 0 -21130118.097 -11658402.397 8151829.062 10 0 60615 32400.00000 0 -21834901.123 -12078593.357 5098648.721 10 0 60615 33300.00000 0 -22245232.332 -12241412.648 1945962.872 10 0 60615 34200.00000 0 -22323395.075 -12185469.270 -1244712.540 10 0 60615 35100.00000 0 -22042358.075 -11956989.064 -4411074.256 10 0 60615 36000.00000 0 -21387053.485 -11607625.438 -7491269.407 10 0 60615 36900.00000 0 -20355164.201 -11192047.609 -10425126.051 10 0 60615 37800.00000 0 -18957385.449 -10765411.071 -13155350.135 10 0 60615 38700.00000 0 -17217148.567 -10380820.142 -15628663.207 10 0 60615 39600.00000 0 -15169818.350 -10086892.674 -17796856.724 10 0 60615 40500.00000 0 -12861398.236 -9925532.241 -19617741.000 10 0 60615 41400.00000 0 -10346798.726 -9930003.722 -21055969.502 10 0 60615 42300.00000 0 -7687743.064 -10123394.514 -22083722.322 10 0 60615 43200.00000 0 -4950399.246 -10517526.479 -22681236.109 10 0 60615 44100.00000 0 -2202838.521 -11112363.952 -22837171.236 10 0 60615 45000.00000 0 487572.746 -11895941.557 -22548810.625 10 0 60615 45900.00000 0 3056739.069 -12844813.265 -21822088.170 10 0 60615 46800.00000 0 5446253.451 -13925002.067 -20671448.141 10 0 60615 47700.00000 0 7605567.387 -15093408.550 -19119540.164 10 0 60615 48600.00000 0 9493825.065 -16299617.748 -17196757.430 10 0 60615 49500.00000 0 11081288.165 -17488027.272 -14940628.510 10 0 60615 50400.00000 0 12350294.997 -18600206.777 -12395075.718 10 0 60615 51300.00000 0 13295717.328 -19577389.675 -9609555.129 10 0 60615 52200.00000 0 13924899.081 -20362992.998 -6638095.299 10 0 60615 53100.00000 0 14257082.452 -20905060.552 -3538253.325 10 0 60615 54000.00000 0 14322347.934 -21158528.079 -370008.119 10 0 60615 54900.00000 0 14160114.526 -21087216.779 2805388.366 10 0 60615 55800.00000 0 13817264.145 -20665472.922 5926580.644 10 0 60615 56700.00000 0 13345969.366 -19879385.942 8933278.534 10 0 60615 57600.00000 0 12801315.440 -18727534.696 11767404.124 10 0 60615 58500.00000 0 12238815.664 -17221230.840 14374196.189 10 0 60615 59400.00000 0 11711923.319 -15384248.644 16703252.270 10 0 60615 60300.00000 0 11269643.384 -13252051.363 18709489.829 10 0 60615 61200.00000 0 10954343.126 -10870544.632 20354009.183 10 0 60615 62100.00000 0 10799852.615 -8294406.415 21604842.631 10 0 60615 63000.00000 0 10829934.556 -5585060.262 22437575.945 10 0 60615 63900.00000 0 11057187.942 -2808373.187 22835830.376 10 0 60615 64800.00000 0 11482432.572 -32170.952 22791595.452 10 0 60615 65700.00000 0 12094601.947 2676328.655 22305405.212 10 0 60615 66600.00000 0 12871151.310 5253059.975 21386352.935 10 0 60615 67500.00000 0 13778966.285 7639526.779 20051942.175 10 0 60615 68400.00000 0 14775736.660 9784992.850 18327774.749 10 0 60615 69300.00000 0 15811740.028 11648354.560 16247079.370 10 0 60615 70200.00000 0 16831962.217 13199616.669 13850087.831 10 0 60615 71100.00000 0 17778466.473 14420908.538 11183268.882 10 0 60615 72000.00000 0 18592911.865 15306996.886 8298433.266 10 0 60615 72900.00000 0 19219114.035 15865272.251 5251726.529 10 0 60615 73800.00000 0 19605538.744 16115208.901 2102529.162 10 0 60615 74700.00000 0 19707620.608 16087320.440 -1087713.765 10 0 60615 75600.00000 0 19489806.280 15821655.430 -4256709.290 10 0 60615 76500.00000 0 18927232.939 15365897.716 -7342553.883 10 0 60615 77400.00000 0 18006968.434 14773153.478 -10284964.902 10 0 60615 78300.00000 0 16728758.460 14099520.927 -13026479.779 10 0 60615 79200.00000 0 15105247.595 13401548.046 -15513597.211 10 0 60615 80100.00000 0 13161664.023 12733688.585 -17697836.103 10 0 60615 81000.00000 0 10934981.111 12145866.254 -19536690.189 10 0 60615 81900.00000 0 8472591.610 11681251.936 -20994458.890 10 0 60615 82800.00000 0 5830551.140 11374348.953 -22042938.077 10 0 60615 83700.00000 0 3071465.750 11249467.539 -22661957.821 10 0 60615 84600.00000 0 262113.081 11319652.381 -22839757.754 10 0 60615 85500.00000 0 -2529102.634 11586107.240 -22573194.248 10 0 60616 0.00000 0 -5234754.967 12038139.112 -21867777.308 10 0 60616 900.00000 0 -7790952.325 12653622.494 -20737537.909 10 0 60616 1800.00000 0 -10139738.479 13399961.438 -19204731.297 10 0 60616 2700.00000 0 -12231243.243 14235507.770 -17299382.489 10 0 60616 3600.00000 0 -14025492.454 15111373.614 -15058685.081 10 0 60616 4500.00000 0 -15493806.123 15973561.068 -12526265.858 10 0 60616 5400.00000 0 -16619729.376 16765318.883 -9751330.289 10 0 60616 6300.00000 0 -17399460.492 17429627.038 -6787705.820 10 0 60616 7200.00000 0 -17841761.183 17911705.277 -3692801.546 10 0 60616 8100.00000 0 -17967355.494 18161441.068 -526504.091 10 0 60616 9000.00000 0 -17807844.603 18135636.164 2649969.629 10 0 60616 9900.00000 0 -17404184.402 17799978.630 5775241.429 10 0 60616 10800.00000 0 -16804790.419 17130658.689 8788941.275 10 0 60616 11700.00000 0 -16063349.570 16115561.427 11632855.869 10 0 60616 12600.00000 0 -15236429.966 14754986.701 14252035.659 10 0 60616 13500.00000 0 -14380987.968 13061865.850 16595840.485 10 0 60616 14400.00000 0 -13551875.708 11061465.131 18618905.137 10 0 60616 15300.00000 0 -12799452.227 8790586.638 20282007.515 10 0 60616 16200.00000 0 -12167397.117 6296297.692 21552823.692 10 0 60616 17100.00000 0 -11690817.470 3634238.823 22406555.965 10 0 60616 18000.00000 0 -11394727.163 866577.654 22826421.934 10 0 60616 18900.00000 0 -11292962.560 -1940309.384 22803994.810 10 0 60616 19800.00000 0 -11387581.068 -4718334.173 22339387.428 10 0 60616 20700.00000 0 -11668769.440 -7400271.587 21441274.949 10 0 60616 21600.00000 0 -12115267.715 -9922306.623 20126753.903 10 0 60616 22500.00000 0 -12695293.324 -12226449.200 18421038.079 10 0 60616 23400.00000 0 -13367928.828 -14262716.387 16356994.815 10 0 60616 24300.00000 0 -14084916.847 -15990990.653 13974528.436 10 0 60616 25200.00000 0 -14792787.985 -17382475.568 11319820.822 10 0 60616 26100.00000 0 -15435232.630 -18420686.580 8444442.414 10 0 60616 27000.00000 0 -15955616.234 -19101933.899 5404350.128 10 0 60616 27900.00000 0 -16299530.628 -19435275.867 2258791.568 10 0 60616 28800.00000 0 -16417271.527 -19441943.867 -930862.399 10 0 60616 29700.00000 0 -16266134.857 -19154262.809 -4102332.598 10 0 60616 30600.00000 0 -15812431.846 -18614113.167 -7193668.421 10 0 60616 31500.00000 0 -15033134.732 -17871000.828 -10144480.178 10 0 60616 32400.00000 0 -13917080.955 -16979818.267 -12897140.409 10 0 60616 33300.00000 0 -12465682.786 -15998393.974 -15397928.464 10 0 60616 34200.00000 0 -10693111.082 -14984936.252 -17598093.974 10 0 60616 35100.00000 0 -8625944.767 -13995481.813 -19454817.015 10 0 60616 36000.00000 0 -6302300.783 -13081458.936 -20932045.428 10 0 60616 36900.00000 0 -3770481.737 -12287469.383 -22001192.769 10 0 60616 37800.00000 0 -1087198.852 -11649383.206 -22641683.824 10 0 60616 38700.00000 0 1684554.280 -11192826.432 -22841338.129 10 0 60616 39600.00000 0 4477887.334 -10932124.241 -22596585.541 10 0 60616 40500.00000 0 7224558.101 -10869742.347 -21912511.470 10 0 60616 41400.00000 0 9857570.416 -10996247.850 -20802732.807 10 0 60616 42300.00000 0 12313717.461 -11290788.715 -19289108.839 10 0 60616 43200.00000 0 14535965.798 -11722069.262 -17401294.522 10 0 60616 44100.00000 0 16475582.733 -12249778.428 -15176146.212 10 0 60616 45000.00000 0 18093920.791 -12826408.923 -12656992.568 10 0 60616 45900.00000 0 19363787.706 -13399389.535 -9892785.531 10 0 60616 46800.00000 0 20270347.781 -13913440.264 -6937148.245 10 0 60616 47700.00000 0 20811519.869 -14313051.149 -3847338.408 10 0 60616 48600.00000 0 20997858.040 -14544981.019 -683146.839 10 0 60616 49500.00000 0 20851922.176 -14560671.944 2494248.101 10 0 60616 50400.00000 0 20407166.467 -14318478.920 5623448.942 10 0 60616 51300.00000 0 19706393.355 -13785622.241 8644008.994 10 0 60616 52200.00000 0 18799837.961 -12939781.416 11497582.437 10 0 60616 53100.00000 0 17742962.869 -11770264.298 14129033.895 10 0 60616 54000.00000 0 16594054.713 -10278702.387 16487487.569 10 0 60616 54900.00000 0 15411721.903 -8479242.463 18527297.216 10 0 60616 55800.00000 0 14252396.725 -6398225.128 20208919.537 10 0 60616 56700.00000 0 13167944.900 -4073361.555 21499675.196 10 0 60616 57600.00000 0 12203481.323 -1552440.023 22374383.454 10 0 60616 58500.00000 0 11395482.584 1108386.965 22815858.360 10 0 60616 59400.00000 0 10770274.956 3846667.051 22815256.576 10 0 60616 60300.00000 0 10342961.485 6595981.259 22372269.211 10 0 60616 61200.00000 0 10116834.138 9288451.990 21495152.505 10 0 60616 62100.00000 0 10083297.121 11857323.803 20200594.908 10 0 60616 63000.00000 0 10222306.476 14239511.229 18513420.892 10 0 60616 63900.00000 0 10503309.489 16378008.222 16466134.912 10 0 60616 64800.00000 0 10886646.267 18224058.710 14098312.115 10 0 60616 65700.00000 0 11325355.879 19738996.798 11455845.601 10 0 60616 66600.00000 0 11767311.749 20895678.198 8590063.402 10 0 60616 67500.00000 0 12157596.117 21679441.323 5556731.497 10 0 60616 68400.00000 0 12441012.392 22088556.042 2414962.141 10 0 60616 69300.00000 0 12564627.424 22134139.868 -773950.566 10 0 60616 70200.00000 0 12480233.724 21839544.218 -3947743.865 10 0 60616 71100.00000 0 12146624.561 21239236.584 -7044422.710 10 0 60616 72000.00000 0 11531582.668 20377226.535 -10003492.889 10 0 60616 72900.00000 0 10613495.531 19305103.321 -12767164.435 10 0 60616 73800.00000 0 9382526.486 18079769.976 -15281499.551 10 0 60616 74700.00000 0 7841290.296 16760971.899 -17497480.575 10 0 60616 75600.00000 0 6005003.552 15408726.609 -19371975.707 10 0 60616 76500.00000 0 3901103.108 14080765.183 -20868582.783 10 0 60616 77400.00000 0 1568348.829 12830094.852 -21958334.416 10 0 60616 78300.00000 0 -944550.999 11702786.256 -22620251.270 10 0 60616 79200.00000 0 -3580733.056 10736078.474 -22841733.711 10 0 60616 80100.00000 0 -6277315.159 9956880.671 -22618785.710 10 0 60616 81000.00000 0 -8967785.151 9380731.697 -21956068.442 10 0 60616 81900.00000 0 -11584542.525 9011259.027 -20866784.465 10 0 60616 82800.00000 0 -14061486.893 8840157.121 -19372396.600 10 0 60616 83700.00000 0 -16336546.255 8847683.249 -17502188.768 10 0 60616 84600.00000 0 -18354041.129 9003647.215 -15292678.733 10 0 60616 85500.00000 0 -20066787.954 9268850.982 -12786895.357 99